This is the latest recevied weather packets stored in our database for station/object DL7KST-13. If no packets are shown the sender has not sent any weather packets the latest 10 day(s).
| Time | Temp. | Humidity | Pressure | Rain* | Wind** | Luminosity | Snow |
|---|---|---|---|---|---|---|---|
| 1777650018 | 23.33° C | 27% | 1016.5 hPa | 0 mm | 0.45 m/s, 313° | - | - |
| 1777648813 | 22.78° C | 28% | 1016.4 hPa | 0 mm | 0.45 m/s, 19° | - | - |
| 1777647608 | 22.78° C | 29% | 1016.6 hPa | 0 mm | 0.45 m/s, 343° | - | - |
| 1777646403 | 23.33° C | 28% | 1016.8 hPa | 0 mm | 0.45 m/s, 166° | - | - |
| 1777645198 | 22.22° C | 28% | 1016.9 hPa | 0 mm | 0.45 m/s, 287° | - | - |
| 1777643994 | 22.78° C | 30% | 1017.4 hPa | 0 mm | 0.45 m/s, 40° | - | - |
| 1777642788 | 22.78° C | 29% | 1017.3 hPa | 0 mm | 0 m/s | - | - |
| 1777641583 | 21.67° C | 30% | 1017.6 hPa | 0 mm | 0.45 m/s, 297° | - | - |
| 1777640378 | 22.22° C | 29% | 1017.7 hPa | 0 mm | 0 m/s | - | - |
| 1777639173 | 22.22° C | 32% | 1018 hPa | 0 mm | 0 m/s | - | - |
| 1777637968 | 21.67° C | 32% | 1018 hPa | 0 mm | 0.45 m/s, 309° | - | - |
| 1777636771 | 21.67° C | 31% | 1018.3 hPa | 0 mm | 0.45 m/s, 314° | - | - |
| 1777636763 | 21.67° C | 31% | 1018.3 hPa | 0 mm | 0.45 m/s, 314° | - | - |
| 1777635558 | 21.11° C | 32% | 1018.4 hPa | 0 mm | 0 m/s | - | - |
| 1777634353 | 21.11° C | 29% | 1018.5 hPa | 0 mm | 0.89 m/s, 54° | - | - |
| 1777633148 | 20.56° C | 32% | 1018.8 hPa | 0 mm | 0 m/s | - | - |
| 1777631945 | 20.56° C | 30% | 1019.1 hPa | 0 mm | 0.45 m/s, 312° | - | - |
| 1777630737 | 19.44° C | 35% | 1019.3 hPa | 0 mm | 0.45 m/s, 200° | - | - |
| 1777629532 | 20° C | 28% | 1019.3 hPa | 0 mm | 0.45 m/s, 48° | - | - |
| 1777628329 | 19.44° C | 33% | 1019.6 hPa | 0 mm | 0 m/s | - | - |
| 1777627124 | 20° C | 32% | 1019.5 hPa | 0 mm | 0.45 m/s, 287° | - | - |
| 1777625918 | 18.89° C | 34% | 1019.5 hPa | 0 mm | 0.45 m/s, 283° | - | - |
| 1777624713 | 18.89° C | 34% | 1019.7 hPa | 0 mm | 0.45 m/s, 294° | - | - |
| 1777623508 | 18.89° C | 36% | 1019.9 hPa | 0 mm | 0 m/s | - | - |
| 1777622308 | 17.78° C | 39% | 1019.8 hPa | 0 mm | 0 m/s | - | - |
* Rain latest hour (hover to see other rain measurements)
** Current wind speed in m/s (hover to see current wind gust speed)